Home   Weather   Lippstadt   Past weeks

Flag for Germany Past Weather in Lippstadt, North Rhine-Westphalia, Germany — Yesterday and Last 2 Weeks

43 °F

Drizzle. Fog.

Feels Like: 40 °F
Forecast: 38 / 53 °F
Wind: 5 mph from North

Location: Paderborn / Lippstadt

Current Time: Oct 22, 2016 at 5:40:30 AM

Latest Report: Oct 22, 2016 at 4:50 AM

Visibility: 1 mi

Pressure: 29.86 "Hg

Humidity: 93%

Dew Point: 41 °F

Location of LippstadtLocation

Past Weather in Lippstadt — Graph


Lippstadt Temperature Yesterday

Maximum temperature yesterday: 45 °F (at 1:50 PM)
Minimum temperature yesterday: 41 °F (at 5:20 AM)
Average temperature yesterday: 43 °F

High & Low Weather Summary for the Past Weeks

High66 °F (Oct 16, 2:50 PM)100% (Oct 21, 5:20 AM)30.27 "Hg (Oct 21, 5:20 AM)
Low34 °F (Oct 11, 5:20 AM)49% (Oct 16, 2:50 PM)29.68 "Hg (Oct 15, 1:50 AM)
Average48 °F82%30.06 "Hg
* Reported Oct 7 4:20 AM — Oct 22 4:20 AM, Lippstadt, Weather by CustomWeather, © 2016

Note: Actual official high and low records may vary slightly from our data, if they occured in-between our weather recording intervals... More about our weather records


Lippstadt Weather History for the Previous 24 Hours

Scroll right to see more
Time TempWeatherWind HumidityBarometerVisibility
4:20 AM
Sat, Oct 22
45 °FDrizzle. Fog.6 mph93%29.86 "Hg1 mi
3:50 AM45 °FDrizzle. Fog.5 mph93%29.86 "Hg1 mi
3:20 AM45 °FDrizzle. Fog.2 mph93%29.86 "Hg2 mi
2:50 AM45 °FDrizzle. Fog.3 mph93%29.86 "Hg2 mi
1:50 AM43 °FLight rain. Fog.6 mph93%29.89 "Hg2 mi
1:20 AM43 °FLight rain. Fog.6 mph93%29.89 "Hg2 mi
12:50 AM43 °FLight rain. Fog.2 mph93%29.89 "Hg2 mi
12:20 AM43 °FDrizzle. Fog.5 mph93%29.89 "Hg2 mi
11:50 PM
Fri, Oct 21
43 °FDrizzle. Fog.8 mph93%29.89 "Hg2 mi
11:20 PM43 °FDrizzle. Fog.10 mph93%29.89 "Hg2 mi
10:50 PM43 °FDrizzle. Fog.9 mph93%29.89 "Hg2 mi
10:20 PM43 °FLight rain. Fog.9 mph93%29.89 "Hg2 mi
9:50 PM43 °FLight rain. Fog.9 mph87%29.89 "Hg3 mi
9:20 PM43 °FLight rain. Fog.9 mph87%29.92 "Hg3 mi
8:50 PM43 °FLight rain. Fog.8 mph87%29.92 "Hg3 mi
8:20 PM43 °FLight rain. Fog.8 mph93%29.92 "Hg3 mi
7:50 PM43 °FLight rain. Fog.8 mph87%29.92 "Hg3 mi
7:20 PM43 °FRain. Fog.7 mph87%29.92 "Hg3 mi
6:50 PM43 °FLight rain. Fog.8 mph87%29.92 "Hg3 mi
6:20 PM43 °FLight rain. Fog.9 mph87%29.92 "Hg3 mi
5:50 PM43 °FLight rain. Fog.9 mph87%29.92 "Hg3 mi
5:20 PM45 °FLight rain. Fog.8 mph81%29.92 "Hg3 mi
4:50 PM45 °FLight rain. Partly sunny.8 mph81%29.92 "Hg3 mi
4:20 PM45 °FLight rain. Partly sunny.8 mph81%29.92 "Hg4 mi
3:50 PM45 °FBroken clouds.10 mph81%29.92 "Hg5 mi
3:20 PM45 °FBroken clouds.10 mph81%29.92 "Hg5 mi
2:50 PM45 °FPartly sunny.8 mph81%29.92 "Hg5 mi
2:20 PM45 °FPartly sunny.8 mph81%29.95 "Hg5 mi
1:50 PM45 °FFog.7 mph81%29.95 "Hg2 mi
1:20 PM43 °FFog.7 mph87%29.95 "Hg2 mi
12:50 PM43 °FDrizzle. Fog.6 mph87%29.95 "Hg1 mi
12:20 PM43 °FDrizzle. Fog.6 mph87%29.95 "Hg1 mi
11:50 AM43 °FFog.6 mph87%29.95 "Hg1 mi
11:20 AM43 °FFog.5 mph87%29.95 "Hg1 mi
10:50 AM43 °FFog.6 mph93%29.95 "Hg1 mi
10:20 AM43 °FFog.6 mph93%29.95 "Hg1 mi
9:50 AM43 °FFog.7 mph93%29.95 "Hg1 mi
9:20 AM41 °FFog.5 mph93%29.95 "Hg1 mi
8:50 AM41 °FFog.3 mph93%29.95 "Hg1 mi
8:20 AM41 °FFog.3 mph93%29.95 "Hg1 mi
7:50 AM41 °FFog.3 mph93%29.95 "Hg2 mi
7:20 AM41 °FFog.2 mph93%29.95 "Hg2 mi
6:50 AM41 °FFog.3 mph93%29.92 "Hg2 mi
6:20 AM41 °FFog.5 mph93%29.95 "Hg2 mi
5:50 AM41 °FFog.5 mph93%29.92 "Hg2 mi
5:20 AM41 °FFog.3 mph100%29.92 "Hg1 mi
Weather by CustomWeather, © 2016

See weather overviewHow to use our weather pages